Regional Weather Roundup
Issued by NWS

Home | Current Version | Previous Version | Graphics & Text | Print | Product List | Glossary On
Versions: 1 2 3 4 5 6 7 8 9 10 11 12 13 14 15 16 17 18 19 20 21 22 23 24 25 26 27
000
ASUS45 KSLC 272010
RWRUT

UTAH REGIONAL WEATHER ROUNDUP
NATIONAL WEATHER SERVICE SALT LAKE CITY UT
200 PM MDT SAT MAY 27 2017

UTZ001>011-023>025-272100-

NORTHERN UTAH

CITY           SKY/WX    TMP DP  RH WIND       PRES   REMARKS
BRIGHAM CITY   MOSUNNY   65  33  30 N5        30.22F
HILL AFB       SUNNY     62  37  39 N9G16     30.23S
LOGAN          MOSUNNY   66  41  40 N9        30.22F
OGDEN          SUNNY     63  37  38 VRB7      30.22F
SALT LAKE CITY MOSUNNY   67  35  30 NW9G18    30.22S
TOOELE VALLEY  SUNNY     63  39  42 N8        30.24F
WENDOVER       SUNNY     67  34  29 SE12      30.23F
HEBER CITY     SUNNY     66  27  22 N10G16    30.19F
WEST JORDAN    SUNNY     63  45  52 N14G21    30.23F

$$

UTZ011>015-024>027-272100-

CENTRAL/NORTHEAST UTAH

CITY           SKY/WX    TMP DP  RH WIND       PRES   REMARKS
PROVO AIRPORT  SUNNY     64  39  39 W10       30.21F
MOAB/CANYONLAN SUNNY     75  19  12 W13G25    30.07S
DELTA          SUNNY     68  30  24 N9        30.20S
PRICE          PTSUNNY   69  25  19 W7G16     30.14F
VERNAL         MOSUNNY   67  28  23 NW9       30.16F

$$

UTZ013>016-019>022-027-272100-

SOUTHERN UTAH

CITY           SKY/WX    TMP DP  RH WIND       PRES   REMARKS
BRYCE CANYON   SUNNY     64  25  22 W12G28    30.24S
CEDAR CITY     SUNNY     70  28  21 N13G18    30.17F
MILFORD        SUNNY     70  31  23 N13       30.18F
ST GEORGE      CLEAR     83  33  16 VRB3      30.03F
HANKSVILLE     SUNNY     77  21  12 W12G17    30.09F
BLANDING       SUNNY     73  15  11 W14G20    30.17F

$$

REGIONAL REPORTS     COLORADO/ARIZONA

CITY           SKY/WX    TMP DP  RH WIND       PRES   REMARKS
CRAIG, CO      CLOUDY    58  34  40 VRB6      30.20S
GRAND JUNCTION SUNNY     71  28  20 W15       30.09F
RIFLE, CO      MOSUNNY   64  35  34 W12       30.15F
MONTROSE, CO   MOSUNNY   67  31  26 W12G17    30.13F
CORTEZ, CO     SUNNY     71  26  18 W10       30.11F
COLORADO CITY    N/A     79  32  18 W10       30.14F
PAGE, AZ       SUNNY     78  29  16 MISG      30.06F
GRAND CANYON   SUNNY     70  23  17 SW10G17   30.20F
KINGMAN, AZ    SUNNY     85  32  15 MISG      30.04F
FLAGSTAFF, AZ  MOSUNNY   68  23  18 W10G23    30.20S

$$

REGIONAL REPORTS    NEVADA/IDAHO/WYOMING

CITY           SKY/WX    TMP DP  RH WIND       PRES   REMARKS
LAS VEGAS, NV  MOSUNNY   88  24  10 NE8G17    29.98F
ELY, NY        SUNNY     65  26  23 E6        30.23F
ELKO, NV       SUNNY     69  24  18 E6        30.22F
POCATELLO, ID  MOSUNNY   61  46  57 VRB3      30.25F
BURLEY, ID     SUNNY     65  41  41 VRB3      30.22F
FORT BRIDGER,    N/A     57  26  30 N3        30.29S
EVANSTON, WY   MOSUNNY   57  29  34 N8        30.27S
ROCK SPRINGS,  MOSUNNY   55  25  31 MISG      30.24S
KEMMERER, WY     N/A     54  30  40 W10       30.27R

$$




USA.gov is the U.S. government's official web portal to all federal, state and local government web resources and services.